Location: Gwatt
(46.7204°N, 7.6223°E)
Time: 13:53:53
(UTC+00:00)

S-56A Canister/Altair - Pass Details

Date: 23 January 2021
Orbit: 632 x 2501 km, 38.9° (Epoch: 28 February)

Event Time Altitude Azimuth Distance (km) Brightness Sun altitude
Rises 07:41:48 0° 264° (W) 3,286 10.3 4.8°
Reaches altitude 10° 07:44:55 10° 243° (WSW) 2,573 10.0 5.2°
Maximum altitude 07:48:38 17° 205° (SSW) 2,410 10.3 5.7°
Drops below altitude 10° 07:53:10 10° 169° (SSE) 3,253 11.6 6.3°
Sets 07:57:55 0° 151° (SSE) 4,635 13.0 7.0°
